Regional Weather Roundup
Issued by NWS Binghamton, NY

Home | Current Version | Previous Version | Text Only | Print | Product List | Glossary On
Versions: 1 2 3 4 5 6 7 8 9 10 11 12 13 14 15 16 17 18 19 20 21 22 23 24 25 26 27 28
000
ASUS41 KBGM 280010
RWRBGM

REGIONAL WEATHER ROUNDUP
NATIONAL WEATHER SERVICE BINGHAMTON NY
800 PM EDT TUE SEP 27 2016

Note: "fair" indicates few or no clouds below 12,000 feet with no
significant weather and/or obstructions to visibility.

* = Station(s) that does not report precipitation, such as rain,
snow, etc, also no thunder or fog.

NYZ009-015>018-022>025-036-037-044>046-055>057-062-280100
...Central New York...

CITY           SKY/WX    TMP DP  RH WIND       PRES   REMARKS
Binghamton     CLEAR     59  44  57 S7        29.93R
Cortland       MOCLDY    54  46  76 CALM      29.93R
Dansville      CLEAR     57  44  62 S6        29.90R
Elmira         PTCLDY    53  39  59 E3        29.90R
Ithaca         PTCLDY    51  46  83 E5        29.93R
Hamilton       MOCLDY    57  52  82 CALM      29.93S
Hornell        CLEAR     52  45  76 SE3       29.95R
Monticello     CLEAR     61  52  72 S3        29.96R
Norwich        PTCLDY    54  46  76 CALM      29.93R
Oneonta        CLEAR     57  43  58 CALM      29.94R
Penn Yan       CLEAR     50  40  68 S3        29.90R
Rome           MOCLDY    60  49  66 CALM      29.91R
Sidney         CLEAR     57  54  88 CALM      29.93R
Syracuse       PTCLDY    56  47  71 CALM      29.89R
$$

PAZ038>040-043-044-047-048-072-280100
...Northeast Pennsylvania...

CITY           SKY/WX    TMP DP  RH WIND       PRES   REMARKS
Hazleton       CLEAR     54  46  76 CALM      29.97S
Scranton       CLEAR     62  46  55 VRB3      29.93R
$$
&&
KEY
WCI = Wind Chill Index
VSB = Visibility
HX  = Heat Index
$$




USA.gov is the U.S. government's official web portal to all federal, state and local government web resources and services.